FREGAT R/B, 43235

Orbit data source: Space-Track

FREGAT R/B, 43235 is space debris originally from a launch on Fri, 09 Mar 2018 UTC launched from the French Guiana (FRGUI). Debris objects in space refer to the collection of defunct objects orbiting the Earth. Examples of debris include non-operational satellites, rocket bodies, and fragments generated from explosions, collisions, or faulty payload assembly.

Loading next visibility...
Identifier
43235, 2018-024E
Orbit
Active
Country
Flag of CISCIS
Related business
Manufacturer
Lavochkin
Mission
Spacecraft
Bus & Motor
FREGAT, Unknown motor
Mass
1,050 kg wet, 1,050 kg dry
Launch date (UTC)
2018-03-09 (8 years ago)
Launch vehicle
Unknown
Launch site
French Guiana (FRGUI)
Object type
Payload
Rocket body
Debris
Shape & HBR
Irr, 1.6 m
Radar Cross Section
11.055 m², Large (>1 m²)

Expand to show TLE details & history
Last TLE update: 1 day ago

TLE from 1 day ago
0 FREGAT R/B
1 43235U 18024E   26126.95324779 -.00000017  00000-0  00000-0 0  9994
2 43235   0.0528 272.6766 0011109 125.2524 322.1506  5.21348408155413
Epoch: 2026-05-06T22:52Z
TLE epoch observation values (Epoch: 2026-05-06T22:52:40.609Z)
Latitude
0.05663°
Longitude
152.02441°
Altitude
7,657.114 km
Speed
5.332 km/s
True Right ascension
23h 59m 59s
True Declination
0° 03' 23"
Sunlit
Object was in daylight at epoch
Visualization orbit readout
Latitude
Unknown
Longitude
Unknown
Altitude
Unknown
Speed
Unknown
Apparent Right ascension
Unknown
Apparent Declination
Unknown
Sunlit
N/A
Visualization observer readout
Local Sidereal Time
08:12:15
Azimuth
Unknown
Elevation
Unknown
Doppler factor
Unknown
Orbital elements
Apogee altitude
7,689.76 km
Perigee altitude
7,658.538 km
Semi-major axis
14,052.286 km
Eccentricity
0.00111
Inclination
0.0528°
RAAN
272.6766°
Arg. of periapsis
125.2524°
True anomaly
322.0724°
Mean anomaly
322.1506°
Eccentric anomaly
322.11151°
Mean motion
1.30293 °/min
Orbital period
276.3 mins
BSTAR
0
Loading maneuver chart data...
Computing Atmospheric mass density...
Loading historical data...
Loading historical data...
Loading historical data...
Loading historical data...
Loading historical data...
Loading historical data...
Loading historical data...
Other satellites on launch #24 in the year 2018 (2018-03-09 UTC)

Documentation

Showing up to 5 results
|